Location: D�derode
(51.8092°N, 10.1065°E)
Time: 20:28:26
(UTC+00:00)

Helios 1A Rocket - Pass Details

Date: 01 December 2020
Orbit: 564 x 585 km, 98.3° (Epoch: 25 January)

Event Time Altitude Azimuth Distance (km) Brightness Sun altitude
Exits shadow 17:34:10 60° 111° (ESE) 649 2.8 -20.9°
Maximum altitude 17:34:37 66° 72° (ENE) 620 2.7 -21.0°
Drops below altitude 10° 17:38:38 10° 350° (N) 1,874 5.5 -21.6°
Sets 17:40:47 0° 348° (NNW) 2,778 6.5 -21.9°
